CZ-3C DEB, 40201

Orbit data source: Space-Track

CZ-3C DEB, 40201 is space debris in HEO originally from a launch on Fri, 24 Feb 2012 UTC launched from the Xichang Space Center, China (XSC). Debris objects in space refer to the collection of defunct objects orbiting the Earth. Examples of debris include non-operational satellites, rocket bodies, and fragments generated from explosions, collisions, or faulty payload assembly.

Loading next visibility...
Identifier
40201, 2012-008L
Orbit
HEO
Country
Flag of CNCN / PRC
Related business
Manufacturer
CALT
Mission
Spacecraft
Bus & Motor
Unknown
Mass
Unknown
Launch date (UTC)
2012-02-24 (14 years ago)
Launch vehicle
Unknown
Launch site
Xichang Space Center, China (XSC)
Object type
Payload
Rocket body
Debris
Shape & HBR
Unknown shape, 0.3 m
Radar Cross Section
Medium (>0.1 m² and <1 m²)

Expand to show TLE details & history
Last TLE update: 5 days ago

TLE from 5 days ago
0 CZ-3C DEB
1 40201U 12008L   26194.92221935  .00000147  00000-0  15739-1 0  9991
2 40201  21.3835  67.7654 7079446  93.7886 342.1650  2.24738123103797
Epoch: 2026-07-13T22:07Z
TLE epoch observation values (Epoch: 2026-07-13T22:07:59.751Z)
Latitude
-0.00004°
Longitude
164.03249°
Altitude
6,474.788 km
Speed
6.77 km/s
True Right ascension
04h 31m 19s
True Declination
0° 00' 00"
Sunlit
Object was in daylight at epoch
Visualization orbit readout
Latitude
Unknown
Longitude
Unknown
Altitude
Unknown
Speed
Unknown
Apparent Right ascension
Unknown
Apparent Declination
Unknown
Sunlit
N/A
Visualization observer readout
Local Sidereal Time
19:18:58
Azimuth
Unknown
Elevation
Unknown
Doppler factor
Unknown
Orbital elements
Apogee altitude
35,678.038 km
Perigee altitude
813.392 km
Semi-major axis
24,623.852 km
Eccentricity
0.70794
Inclination
21.3835°
RAAN
67.7654°
Arg. of periapsis
93.7886°
True anomaly
265.82517°
Mean anomaly
342.165°
Eccentric anomaly
312.04064°
Mean motion
0.56171 °/min
Orbital period
640.9 mins
BSTAR
0.015739
Loading maneuver chart data...
Computing Atmospheric mass density...
Loading historical data...
Loading historical data...
Loading historical data...
Loading historical data...
Loading historical data...
Loading historical data...
Loading historical data...

Documentation

Showing up to 5 results
|